User: anonymous   Login
Location: Unspecified
(0.0000°N, 0.0000°E)
Time: 16:39:36
(UTC+00:00)
Language:

Tiros 1 - Orbit

View from above orbital plane
View from above orbital plane
View from above satellite
View from above satellite

Ground track
Ground track

The orbit data is extracted from the following two-line orbital elements,

1 00029U 60002B   18170.15115029 -.00000144  00000-0  95748-5 0  9998
2 00029  48.3784 150.1413 0024287 351.0142   9.0332 14.74250359111045
Epoch (UTC): 19 June 2018 03:37:39
Eccentricity: 0.0024287
inclination: 48.3784°
perigee height: 630 km
apogee height: 664 km
right ascension of ascending node: 150.1413°
argument of perigee: 351.0142°
revolutions per day: 14.74250359
mean anomaly at epoch: 9.0332°
orbit number at epoch: 11104

The dashed part of the orbit path shows where the satellite is in the earth's shadow,  

DLR